Location: Conflandey
(47.7287°N, 6.0456°E)
Time: 21:44:01
(UTC+00:00)

CSL-04 Rocket - Pass Details

Date: 24 October 2021
Orbit: 805 x 860 km, 98.9° (Epoch: 05 December)

Event Time Altitude Azimuth Distance (km) Brightness Sun altitude
Exits shadow 18:56:00 45° 159° (SSE) 1,158 4.1 -25.0°
Maximum altitude 18:57:49 86° 76° (ENE) 869 3.6 -25.3°
Drops below altitude 10° 19:03:25 10° 346° (NNW) 2,509 6.4 -26.2°
Sets 19:05:49 0° 346° (NNW) 3,448 7.2 -26.6°
